Regional Weather Roundup
Issued by NWS

Home | Current Version | Previous Version | Graphics & Text | Print | Product List | Glossary Off
Versions: 1 2 3 4 5 6 7 8 9 10 11 12 13 14 15 16 17 18 19 20 21 22 23 24 25 26 27 28 29 30 31 32 33 34 35 36 37 38 39 40 41 42 43 44 45 46 47 48 49 50

995
ASUS43 KMPX 041601
RWRMN
WEATHER ROUNDUP FOR MINNESOTA
NATIONAL WEATHER SERVICE TWIN CITIES/CHANHASSEN MN
1000 AM CST SUN DEC 04 2016


NOTE: "FAIR" INDICATES FEW OR NO CLOUDS BELOW 12,000 FEET WITH NO
SIGNIFICANT WEATHER AND/OR OBSTRUCTIONS TO VISIBILITY. N/A MEANS
CURRENT SKY AND/OR WEATHER CONDITIONS ARE NOT AVAILABLE.

MNZ060>063-068>070-041700-
   Twin Cities Metro

CITY           SKY/WX    TMP DP  RH WIND       PRES   REMARKS
TWIN CITIES    CLOUDY    33  31  92 S9        29.88F FOG     WCI  25
ST PAUL        CLOUDY    33  33 100 SE12      29.90F FOG     WCI  24
CRYSTAL        CLOUDY    33  30  88 S9        29.87F FOG     WCI  25
BLAINE         LGT SNOW  34  34 100 SE9       29.87F FOG     WCI  26
LAKEVILLE      CLOUDY    32  32 100 S6        29.89S FOG     WCI  26
EDEN PRAIRIE   FOG       34  32  92 S10       29.87F VSB 1   WCI  26
SOUTH ST PAUL  CLOUDY    33  32  98 SE7       29.90S FOG     WCI  27
LAKE ELMO      MIX PCPN  32  32 100 S10G16    29.90F WCI  24
$$
MNZ001>005-007-008-013>017-022>024-027-028-041700-
   Northwest Minnesota

CITY           SKY/WX    TMP DP  RH WIND       PRES   REMARKS
BEMIDJI        CLOUDY    31  30  97 SE13      29.75S FOG     WCI  21
HALLOCK        CLOUDY    34  32  93 S15       29.66F FOG     WCI  24
ROSEAU         LGT SNOW  34  28  80 SE10      29.71F VSB 1   WCI  26
WARROAD        LGT SNOW  30  28  93 SE12      29.73F WCI  21
THIEF RVR FALL MIX PCPN  32  31  96 S12       29.71F FOG     WCI  23
CROOKSTON      CLOUDY    34  34 100 S13       29.71F FOG     WCI  25
FOSSTON        LGT SNOW  30  30 100 SE9       29.72F WCI  22
DETROIT LAKES  CLOUDY    32  32 100 S12       29.73F FOG     WCI  23
MOORHEAD       RAIN      34  30  86 SW9       29.74S WCI  26
PARK RAPIDS    LGT SNOW  33  29  85 SE12      29.75F VSB 1   WCI  24
$$
MNZ006-009>011-018-025>026-041700-
   North Central Minnesota

CITY           SKY/WX    TMP DP  RH WIND       PRES   REMARKS
BAUDETTE       LGT SNOW  29  27  92 SE12      29.76F FOG     WCI  19
FLAG ISLAND    LGT SNOW  28  28 100 SE15G21   29.74F VSB 3/4 WCI  17
INTL FALLS     SNOW      29  26  89 SE9       29.81F VSB 1/4 WCI  20
WASKISH        LGT SNOW  30  28  93 SE9       29.76F WCI  22
BIG FORK       LGT SNOW  30  27  86 SE6       29.81F WCI  24
LONGVILLE      LGT SNOW  30  30 100 SE8       29.79F WCI  23
GRAND RAPIDS   LGT SNOW  29  27  92 SE9       29.83F FOG     WCI  20
CRANE LAKE     LGT SNOW  28  27  93 SE3       29.87F
ORR            MIX PCPN  28  25  86 S9        29.82F WCI  20
COOK           FLURRIES  28  27  93 SE7       29.85F WCI  21
$$
MNZ012-019>021-037-041700-
   Northeast Minnesota

CITY           SKY/WX    TMP DP  RH WIND       PRES   REMARKS
DULUTH         LGT SNOW  30  28  92 SE12      29.87F VSB 3/4 WCI  20
ELY            PTSUNNY   28  27  93 SE10G16   29.87F WCI  19
HIBBING        LGT SNOW  27  26  96 SE7       29.85F VSB 1   WCI  19
EVELETH        LGT SNOW  30  28  94 SE8       29.87F WCI  22
DULUTH HARBOR  MIX PCPN  32  28  86 CALM      29.92F
TWO HARBORS    MIX PCPN  34  28  80 SE6       29.90S VSB 3/4 WCI  29
SILVER BAY     MIX PCPN  32  30  93 SE5       29.91F VSB 1   WCI  27
GRAND MARAIS     N/A     35  29  78 SE9       29.98F WCI  28
G MARAIS ARPRT CLOUDY    27  21  80 SE5       29.92F WCI  21
$$
MNZ029>031-032-039>041-046>048-054>057-064-041700-
   West Central Minnesota

CITY           SKY/WX    TMP DP  RH WIND       PRES   REMARKS
FERGUS FALLS   CLOUDY    32  32 100 S10       29.79S FOG     WCI  24
MORRIS         CLOUDY    34  32  93 S10       29.77S FOG     WCI  26
ALEXANDRIA     CLOUDY    33  32  96 S13       29.77F WCI  24
ELBOW LAKE     CLOUDY    32  32 100 S12       29.76F FOG     WCI  23
WADENA         LGT SNOW  32  30  93 S9          N/A  WCI  24
GLENWOOD       PTSUNNY   34  32  93 S16       29.79F FOG     WCI  23
APPLETON       CLOUDY    36  32  87 SW8       29.79F
BENSON         LGT SNOW  34  30  86 SW10      29.80S WCI  26
ORTONVILLE     PTSUNNY   36  30  80 CALM      29.78F
MADISON        PTSUNNY   37  36  93 W12G20    29.80F
WILLMAR        CLOUDY    36  34  93 CALM      29.83S
$$
MNZ033>034-036-042>043-049>051-058-059-041700-
   Central Minnesota

CITY           SKY/WX    TMP DP  RH WIND       PRES   REMARKS
ST CLOUD       CLOUDY    32  32 100 S9        29.84F FOG     WCI  24
PAYNESVILLE    CLOUDY    33  33 100 S9        29.82F FOG     WCI  25
AITKIN         CLOUDY    34  28  80 SE9       29.81F FOG     WCI  26
PINE RIVER     LGT SNOW  30  30 100 SE13      29.82F WCI  20
BRAINERD       CLOUDY    31  31 100 S10       29.81F FOG     WCI  22
STAPLES        CLOUDY    30  30 100 S8        29.78F FOG     WCI  23
LONG PRAIRIE   CLOUDY    32  32 100 SE13      29.80F FOG     WCI  22
LITTLE FALLS   CLOUDY    32  32 100 SE12      29.82F FOG     WCI  23
LITCHFIELD     CLOUDY    36  34  93 SE5       29.84F FOG
BUFFALO        CLOUDY    33  32  96 S6        29.87S FOG     WCI  27
MAPLE LAKE     CLOUDY    34  33  99 S6        29.86F FOG     WCI  29
$$
MNZ037-044-045-052-053-041700-
   East Central Minnesota

CITY           SKY/WX    TMP DP  RH WIND       PRES   REMARKS
PRINCETON      CLOUDY    34  32  93 S10       29.86F FOG     WCI  26
MORA           LGT SNOW  32  30  93 S8        29.87F WCI  25
CAMBRIDGE      LGT SNOW  34  30  86 SE6       29.84F WCI  29
RUSH CITY      CLOUDY    32  30  93 SE8       29.88F WCI  25
MOOSE LAKE     LGT SNOW  32  28  86 SE5       29.85F WCI  27
HINCKLEY       LGT SNOW  32  32 100 SE7       29.88F WCI  26
CLOQUET        LGT SNOW  28  27  93 SE3       29.87F
MCGREGOR       CLOUDY    32  30  93 SE10      29.84F WCI  24
$$
MNZ071>073-080-081-089-090-097-098-041700-
   Southwest Minnesota

CITY           SKY/WX    TMP DP  RH WIND       PRES   REMARKS
MONTEVIDEO     CLOUDY    36  36 100 W9        29.83S
GRANITE FALLS  CLOUDY    37  33  88 SW9       29.85S
CANBY          CLOUDY    36  32  87 SW10G17   29.82F
MARSHALL       PTSUNNY   36  30  79 SW17      29.84R
REDWOOD FALLS  PTSUNNY   36  31  82 S9        29.84F
OLIVIA         CLOUDY    34  32  93 S8        29.83S WCI  27
PIPESTONE      PTSUNNY   32  30  93 SW12      29.84S WCI  23
WINDOM         PTSUNNY   36  30  80 SW17      29.85F
WORTHINGTON    CLOUDY    33  31  92 SW16      29.86S WCI  23
JACKSON        CLOUDY    32  30  93 SW15      29.87F WCI  22
TRACY          MOSUNNY   36  32  87 SW16      29.84R
SLAYTON        CLOUDY    32  30  94 SW12      29.85S WCI  23
$$
MNZ065>067-074>077-082>085-091>093-041700-
   South Central Minnesota

CITY           SKY/WX    TMP DP  RH WIND       PRES   REMARKS
MANKATO        CLOUDY    33  32  96 S7        29.89S FOG     WCI  27
NEW ULM        MOSUNNY   36  36 100 SW8       29.86F
ST JAMES       PTSUNNY   36  32  87 SW10      29.87F
FAIRMONT       CLOUDY    35  32  88 SW9       29.89F WCI  28
GLENCOE        CLOUDY    34  34 100 S5        29.85F FOG     WCI  30
FARIBAULT      FOG       34  34 100 S6        29.90S VSB 1   WCI  29
OWATONNA       CLOUDY    34  32  93 S10       29.89S FOG     WCI  26
WASECA         CLOUDY    32  32 100 S10       29.90F FOG     WCI  24
ALBERT LEA     FOG       36  36 100 SW8       29.90S VSB 1/2
$$
MNZ078>079-086>088-094>096-041700-
   Southeast Minnesota

CITY           SKY/WX    TMP DP  RH WIND       PRES   REMARKS
ROCHESTER      LGT SNOW  33  32  96 S13       29.91S VSB 3/4 WCI  24
STANTON        CLOUDY    35  32  90 S9        29.89S WCI  27
DODGE CENTER   CLOUDY    32  30  93 S15       29.90S WCI  22
WINONA         LGT SNOW  34  34 100 SE6       29.95F WCI  29
AUSTIN         MIX PCPN  34  30  86 S12       29.91S WCI  25
PRESTON        LGT SNOW  32  30  94 S13       29.92F WCI  22
$$
ABBREVIATIONS USED IN REMARKS
   TC - TEMPERATURES IN CELSIUS
  WCI - WIND CHILL INDEX
   HX - HEAT INDEX
  VSB - VISIBILITY
$$




USA.gov is the U.S. government's official web portal to all federal, state and local government web resources and services.